Total_Precipitation_Accumulation
0.01 0.02 0.03 0.07 0.24 0.50 0.75 0.65 0.70 0.71 0.71 0.63 0.64 0.72 0.81 0.93 1.21 2.09 1.41 0.74 0.50 0.53 0.49 0.56 0.58 0.61 0.69 0.73 0.82 0.98 1.05 1.00 1.10 1.26 1.53 1.67 1.81 2.01 2.12 2.14 2.30 2.32 2.27 2.08 1.92 1.93 2.05 2.19 2.11
0.02 0.03 0.05 0.11 0.38 0.74 0.76 0.65 0.70 0.71 0.60 0.51 0.58 0.70 0.69 0.68 0.64 0.69 0.85 0.69 0.50 0.45 0.50 0.50 0.56 0.65 0.67 0.71 0.76 0.93 1.03 1.00 1.03 1.17 1.47 1.70 1.84 2.02 2.16 2.29 2.46 2.70 2.71 2.60 2.29 2.09 2.16 2.22 2.09
0.02 0.05 0.09 0.16 0.41 0.65 0.74 0.62 0.63 0.59 0.52 0.54 0.60 0.68 0.76 0.82 0.74 0.69 0.69 0.48 0.54 0.48 0.54 0.64 0.64 0.71 0.68 0.70 0.78 0.92 1.07 1.12 1.11 1.21 1.39 1.75 1.91 2.10 2.29 2.52 2.52 2.67 2.70 2.75 2.57 2.42 2.31 2.20 2.06
0.03 0.06 0.11 0.21 0.34 0.45 0.54 0.54 0.65 0.72 0.63 0.61 0.59 0.77 0.88 0.78 0.74 0.71 0.64 0.55 0.52 0.55 0.61 0.62 0.67 0.71 0.70 0.75 0.84 0.97 1.21 1.26 1.24 1.28 1.42 1.70 1.86 1.99 2.28 2.66 2.55 2.51 2.50 2.64 2.67 2.56 2.44 2.32 2.02
0.05 0.08 0.16 0.27 0.34 0.36 0.48 0.56 0.73 0.83 0.70 0.65 0.69 0.95 1.11 1.00 0.89 0.86 0.77 0.71 0.59 0.60 0.71 0.69 0.74 0.77 0.79 0.82 0.90 1.06 1.21 1.27 1.31 1.40 1.52 1.73 1.81 1.88 2.21 2.61 2.72 2.71 2.59 2.63 2.58 2.50 2.44 2.48 2.22
0.07 0.11 0.23 0.37 0.38 0.37 0.44 0.56 0.61 0.72 0.72 0.70 0.77 1.18 1.60 1.58 1.47 1.34 1.17 0.91 0.74 0.68 0.79 0.83 0.87 0.89 0.94 0.96 0.94 1.07 1.19 1.23 1.39 1.55 1.62 1.77 1.91 1.99 2.22 2.56 2.84 2.90 2.80 2.64 2.51 2.34 2.20 2.33 2.28
0.10 0.17 0.27 0.34 0.41 0.44 0.45 0.58 0.68 0.75 0.80 0.85 0.98 1.25 1.63 1.79 1.87 1.74 1.53 1.24 1.19 1.12 1.17 1.17 1.07 1.00 1.05 1.07 1.04 1.08 1.15 1.17 1.32 1.52 1.56 1.63 1.89 2.13 2.21 2.33 2.61 2.77 2.68 2.58 2.46 2.34 2.09 2.16 2.29
0.08 0.12 0.20 0.28 0.40 0.52 0.52 0.67 0.69 0.69 0.85 0.96 1.14 1.40 1.85 1.77 1.60 1.77 1.80 1.74 1.69 1.78 1.78 1.41 1.23 1.17 1.19 1.20 1.20 1.26 1.24 1.20 1.28 1.42 1.59 1.71 1.90 2.12 2.33 2.37 2.52 2.63 2.55 2.53 2.46 2.43 2.26 2.28 2.40
0.09 0.13 0.19 0.30 0.41 0.47 0.44 0.62 0.61 0.55 0.68 0.86 1.09 1.23 1.44 1.39 1.41 1.77 1.98 2.29 2.41 2.24 2.08 1.81 1.54 1.46 1.41 1.27 1.18 1.37 1.37 1.32 1.38 1.48 1.61 1.78 2.08 2.40 2.55 2.43 2.50 2.45 2.40 2.51 2.62 2.56 2.46 2.58 2.61
0.07 0.10 0.17 0.23 0.26 0.35 0.44 0.60 0.55 0.63 0.77 0.96 1.01 1.22 1.41 1.40 1.71 1.93 2.10 2.61 2.54 2.43 2.21 2.13 2.01 1.80 1.75 1.43 1.58 1.83 1.66 1.64 1.58 1.75 1.81 2.09 2.54 2.80 2.61 2.87 2.94 2.85 2.79 2.85 2.94 2.87 2.71 2.62 2.46
0.06 0.08 0.14 0.21 0.20 0.28 0.44 0.56 0.55 0.70 0.99 1.33 1.34 1.32 1.39 1.47 1.79 2.07 2.28 2.66 2.78 2.56 2.24 2.28 2.28 2.27 2.29 2.26 2.07 2.09 2.11 2.19 2.11 2.29 2.29 2.57 2.80 2.84 3.02 3.35 3.33 3.24 3.10 2.97 3.07 2.96 2.49 2.47 2.63
0.10 0.12 0.16 0.18 0.21 0.33 0.50 0.60 0.81 0.92 1.11 1.41 1.46 1.43 1.61 1.72 1.87 2.03 2.29 2.69 2.93 2.85 2.69 2.81 2.63 2.60 2.72 2.90 2.79 2.38 2.29 2.34 2.28 2.57 2.58 2.83 3.10 3.27 3.58 3.73 3.53 3.54 3.52 3.51 3.47 3.37 2.99 2.84 2.76
0.12 0.15 0.18 0.18 0.25 0.38 0.55 0.63 0.78 0.83 0.76 1.05 1.33 1.53 1.76 1.75 1.93 2.09 2.46 3.06 3.34 3.29 3.16 3.29 3.25 3.22 3.26 3.50 3.49 2.84 2.76 2.93 3.19 3.30 3.13 3.18 3.30 3.52 3.91 3.92 3.88 3.79 3.88 3.82 3.69 3.48 3.49 3.48 3.24
0.12 0.15 0.17 0.19 0.23 0.32 0.47 0.52 0.66 0.91 0.87 1.01 1.25 1.60 1.82 1.99 2.28 2.66 2.98 3.42 3.71 3.75 3.59 3.55 3.54 3.69 3.61 3.63 3.66 3.62 3.37 3.45 3.64 3.75 3.74 3.72 3.85 4.07 4.32 4.35 4.31 4.09 4.18 4.10 3.98 3.79 3.83 3.86 3.83
0.14 0.15 0.20 0.26 0.30 0.32 0.38 0.63 0.81 0.99 1.09 1.25 1.43 1.61 1.94 2.19 2.44 2.79 3.32 3.64 3.67 3.63 3.56 3.65 3.65 3.88 4.04 4.06 3.89 3.96 3.97 4.05 4.23 4.27 4.14 4.07 4.23 4.64 4.77 4.83 4.56 4.39 4.43 4.62 4.63 4.52 4.45 4.14 4.04
0.17 0.22 0.28 0.32 0.33 0.39 0.41 0.80 0.98 0.85 1.03 1.43 1.62 1.66 1.86 2.10 2.41 2.76 3.21 3.59 3.72 3.98 4.00 3.98 3.98 4.12 4.43 4.50 4.39 4.37 4.32 4.63 4.73 4.71 4.62 4.37 4.34 4.63 4.88 4.84 4.69 4.62 4.61 4.92 5.12 5.11 5.05 4.81 4.65
0.24 0.31 0.35 0.38 0.35 0.41 0.49 0.80 1.00 0.99 1.03 1.30 1.72 1.95 1.94 2.17 2.56 2.93 3.27 3.62 3.87 4.00 4.19 4.19 4.33 4.55 4.61 4.73 4.68 4.81 4.96 4.92 4.85 4.82 4.84 4.74 4.73 4.94 5.08 4.95 4.99 5.05 5.14 5.15 4.91 5.13 5.01 5.01 4.92
0.28 0.32 0.38 0.42 0.42 0.42 0.54 0.76 1.00 1.14 1.31 1.42 1.69 2.03 2.21 2.21 2.48 2.81 3.21 3.65 3.94 4.10 4.11 4.25 4.32 4.52 4.73 4.95 4.99 5.06 5.21 5.32 5.48 5.59 5.59 5.37 5.36 5.31 5.62 5.57 5.50 5.53 5.52 5.37 5.27 5.34 5.05 4.95 4.93
0.26 0.36 0.42 0.45 0.43 0.51 0.61 0.73 0.99 1.21 1.46 1.52 1.62 1.90 2.13 2.37 2.52 2.87 3.25 3.54 4.09 4.24 4.18 4.29 4.43 4.64 4.80 5.11 5.24 5.54 5.90 6.13 6.28 6.20 6.04 6.12 6.10 6.14 6.24 6.03 5.93 5.78 5.77 5.71 5.69 5.61 5.34 5.08 5.11
0.27 0.43 0.48 0.46 0.44 0.53 0.72 0.88 1.09 1.32 1.48 1.47 1.63 1.81 2.08 2.45 2.78 3.00 3.20 3.59 4.13 4.39 4.47 4.57 4.80 5.14 5.32 5.60 6.08 6.41 6.75 6.97 7.13 7.15 6.73 6.43 6.30 6.22 6.15 6.32 6.28 6.17 6.07 5.91 5.75 5.68 5.48 5.08 5.09
0.22 0.32 0.41 0.49 0.53 0.61 0.84 1.24 1.45 1.61 1.69 1.81 2.05 2.26 2.35 2.57 2.95 3.04 3.09 3.52 3.88 4.15 4.33 4.56 4.87 5.40 5.93 6.30 6.73 7.11 7.35 7.38 7.20 6.91 6.90 6.65 6.43 6.30 6.13 6.05 5.91 5.88 5.78 5.78 5.66 5.47 5.32 5.13 5.01
0.21 0.24 0.35 0.42 0.62 0.76 0.90 1.65 2.04 2.04 2.04 2.25 2.45 2.52 2.59 2.68 2.90 3.01 3.13 3.44 3.77 4.07 4.27 4.66 5.27 6.06 6.59 6.97 7.50 8.07 8.24 8.00 7.64 7.23 6.79 6.41 6.13 5.81 5.58 5.50 5.47 5.42 5.09 5.01 4.87 4.86 4.77 4.70 4.53
0.20 0.21 0.29 0.36 0.51 0.74 0.97 1.53 2.47 2.51 2.50 2.62 2.75 2.55 2.58 2.49 2.55 2.80 2.95 3.19 3.70 4.02 4.27 4.63 5.27 6.07 6.82 7.61 8.26 8.74 8.62 8.29 7.88 7.16 6.52 6.02 5.61 5.23 4.92 4.82 4.75 4.56 4.20 3.93 3.88 4.09 4.15 4.17 4.11
0.16 0.21 0.30 0.38 0.53 0.88 0.95 1.38 2.25 2.61 2.79 2.85 2.75 2.51 2.41 2.29 2.31 2.44 2.62 2.99 3.54 3.85 4.05 4.38 5.03 5.84 6.53 7.13 7.65 7.93 7.83 7.67 7.15 6.46 5.81 5.38 5.05 4.68 4.28 3.91 3.75 3.54 3.40 3.25 3.28 3.41 3.51 3.78 3.91
0.20 0.30 0.66 0.90 1.05 1.11 0.88 1.22 2.03 2.34 2.44 2.37 2.41 2.44 2.26 2.30 2.26 2.26 2.39 2.68 3.11 3.27 3.64 4.03 4.49 5.17 5.62 5.96 6.33 6.56 6.71 6.53 6.17 5.67 5.19 4.75 4.27 3.91 3.57 3.22 3.17 3.05 2.99 2.94 3.00 3.10 3.11 3.24 3.45
0.23 0.29 0.73 1.11 1.18 1.22 1.19 1.67 2.32 2.26 2.15 2.07 2.04 2.08 2.11 2.27 2.28 2.27 2.43 2.63 2.89 3.06 3.23 3.41 3.70 4.09 4.28 4.33 4.57 4.88 4.97 4.92 4.77 4.50 4.09 3.81 3.46 3.09 2.89 2.65 2.49 2.49 2.59 2.53 2.69 2.81 2.86 2.87 2.96
0.23 0.25 0.36 0.71 0.84 1.31 1.67 2.16 2.67 2.35 2.22 2.17 2.07 1.94 1.90 1.96 2.10 2.27 2.40 2.43 2.43 2.46 2.55 2.65 2.86 3.01 3.07 3.16 3.25 3.43 3.50 3.48 3.43 3.31 3.04 2.82 2.70 2.42 2.29 2.21 2.19 2.16 2.23 2.38 2.48 2.46 2.46 2.60 2.68
0.21 0.29 0.45 0.82 1.31 1.61 1.92 2.67 3.42 3.10 2.56 2.22 1.98 1.77 1.71 1.77 1.92 2.11 2.27 2.27 2.25 2.16 2.22 2.30 2.45 2.52 2.52 2.60 2.61 2.58 2.65 2.64 2.63 2.51 2.39 2.34 2.27 2.15 2.10 2.02 1.97 1.94 1.95 2.01 2.15 2.20 2.24 2.31 2.41
0.31 0.38 0.56 0.87 1.06 1.60 2.17 3.00 3.12 3.34 3.06 2.51 2.17 2.02 1.93 1.83 1.91 2.10 2.13 2.08 2.08 2.05 2.08 2.16 2.18 2.23 2.23 2.22 2.29 2.30 2.22 2.20 2.25 2.24 2.10 2.07 2.05 1.93 1.87 1.81 1.73 1.68 1.67 1.74 1.87 1.91 1.99 2.06 2.15
0.30 0.38 0.57 1.13 1.28 1.35 2.07 3.16 2.90 3.13 3.25 2.95 2.68 2.55 2.46 2.26 2.10 2.09 2.01 1.95 1.90 1.97 2.01 2.11 2.08 2.03 2.07 1.98 1.94 1.96 2.00 1.95 1.97 1.95 1.84 1.84 1.91 1.84 1.77 1.67 1.58 1.48 1.47 1.54 1.58 1.60 1.71 1.85 1.90